Regional Weather Roundup
Issued by NWS Jackson, KY

Home | Current Version | Previous Version | Text Only | Print | Product List | Glossary Off
Versions: 1 2 3 4 5 6 7 8 9 10 11 12 13 14 15 16 17 18 19 20 21 22 23 24 25 26 27 28 29 30 31 32 33 34 35 36 37 38 39 40 41 42 43 44 45 46 47 48 49 50

000
ASUS43 KJKL 210610
RWRJKL

EAST KENTUCKY HOURLY WEATHER ROUNDUP
NATIONAL WEATHER SERVICE JACKSON KY
200 AM EDT TUE APR 21 2015

NOTE: "FAIR" INDICATES FEW OR NO CLOUDS BELOW 12,000 FEET WITH
NO SIGNIFICANT WEATHER AND/OR OBSTRUCTIONS TO VISIBILITY.

* THESE REPORTS ARE NOT UNDER NWS QUALITY CONTROL AND MAY NOT
  REPORT WEATHER SUCH AS PRECIPITATION AND FOG.

KYZ079-080-083-085-087-088-110-112-115-119-120-210700
...EASTERN KENTUCKY...

CITY           SKY/WX    TMP DP  RH WIND       PRES   REMARKS
JACKSON        CLOUDY    50  42  74 VRB6      29.86R
6HR MIN TEMP:  50; 6HR MAX TEMP:  52; 6HR PCP: TRACE;

LONDON         CLOUDY    51  46  83 W6        29.88R
6HR MIN TEMP:  51; 6HR MAX TEMP:  53; 6HR PCP: TRACE;

SOMERSET*      CLOUDY    50  43  76 CALM      29.91S
MONTICELLO*    MOCLDY    51  46  83 CALM      29.93R
6HR MIN TEMP:  50; 6HR MAX TEMP:  54;

MIDDLESBORO*   CLOUDY    48  47  98 CALM      29.90R
6HR MIN TEMP:  47; 6HR MAX TEMP:  56; 6HR PCP:  0.01;

HARLAN APT*    MOCLDY    48  48 100 W9        29.87S
HAZARD APT*    CLOUDY    52  46  82 W6        29.87R
BLACK MTN*       N/A     39  39 100 S2          N/A
PIKEVILLE APT* CLOUDY    50  45  81 SW5       29.85R
BIG SANDY*     CLOUDY    51  44  76 W5        29.85R
6HR MIN TEMP:  51; 6HR MAX TEMP:  56;

$$

KYZ035-036-041-042-044-050-067-078-099-210700
...CENTRAL KENTUCKY...

CITY           SKY/WX    TMP DP  RH WIND       PRES   REMARKS
MT STERLING*   CLOUDY    46  39  76 W5        29.87S
FLEMING/MASON* CLOUDY    45  37  76 W8        29.84R
DANVILLE*      CLOUDY    48  36  61 W5        29.89S
RICHMOND*      CLOUDY    48  39  71 W3        29.88R
LEXINGTON      MOCLDY    47  35  63 W7        29.86R
6HR MIN TEMP:  47; 6HR MAX TEMP:  56;

FRANKFORT        N/A     44  35  70 SW6       29.85R
6HR MIN TEMP:  43; 6HR MAX TEMP:  56;

$$

KYZ091>093-OHZ055-061-077-WVZ005-015-034-035-042-210700
...SOUTHERN OHIO/WEST VIRGINIA...

CITY           SKY/WX    TMP DP  RH WIND       PRES   REMARKS
COVINGTON      CLOUDY    47  35  63 SW7       29.81R
COLUMBUS       CLOUDY    47  36  65 W9        29.75R
DAYTON           N/A     45  36  70 SW14      29.76S
WILMINGTON     CLOUDY    46  34  62 W9        29.78R
HUNTINGTON     CLOUDY    50  35  56 W10       29.82R
CHARLESTON     CLOUDY    53  41  63 W10       29.80R
PINEVILLE*     CLOUDY    50  49  97 MISG      29.87R
BECKLEY        CLOUDY    47  42  83 W8        29.81R
BLUEFIELD      CLOUDY    48  41  76 W12       29.82F
$$

VAZ002-007-008-TNZ017-027-036-066-071-210700
...SOUTHWEST VIRGINIA/EAST TENNESSEE...

CITY           SKY/WX    TMP DP  RH WIND       PRES   REMARKS
WISE*            N/A     45  37  76 W5        29.87R
JONESVILLE*      N/A     48  46  93 CALM      29.90R
ABINGDON*      CLOUDY    52  43  72 W5        29.85S
BRISTOL        CLOUDY    51  44  77 W6        29.87R
KNOXVILLE        N/A     52  43  71 SW6       29.90R
OAK RIDGE        N/A     51  45  79 CALM      29.91R
CROSSVILLE       N/A     46  41  82 SW5       29.91S
NASHVILLE        N/A     52  42  69 NW7       29.92R
$$

...KEY TO REMARKS...
VSB - VISIBILITY IN MILES
WCI - WIND CHILL INDEX
HX  - HEAT INDEX

$$


USA.gov is the U.S. government's official web portal to all federal, state and local government web resources and services.